sat.trackr.live / text

‹ back to catalog

FENGYUN 2H

NORAD 43491 · 2018-050A

PAYLOAD ACTIVE UNKNOWN

§ Identity

Operator
Country
PRC
Launch date
2018-06-05
Launch site
XICLF
Launch vehicle
Mass (kg)
RCS (m²)

Purposes: comms, earth_obs

External: N2YO · Heavens-Above · Gunter

§ Orbital elements

Epoch: 2026-09-20T01:54:07.437600Z

Period
1,436.09 min
Inclination
3.2684°
Eccentricity
0.0002500
Mean motion
1.00272334 rev/d
Perigee alt
35,775.9 km
Apogee alt
35,797.0 km
Semi-major
42,164.6 km
B*
0.0000e+0
RAAN
77.8757°
Arg perigee
146.5823°
Mean anomaly
242.3855°
Rev number
3,039

§ Raw data

FENGYUN 2H1 43491U 18050A   26263.07925275 -.00000133  00000+0  00000+0 0  99972 43491   3.2684  77.8757 0002500 146.5823 242.3855  1.00272334 30399

JSON: /api/v1/satellites/43491 · /tle

For live sub-satellite position, see the globe view (requires WebGL).

§ Visibility from observer

Set your observer location to see the next 7 days of passes ≥ 10°. The values pass through the URL so the page stays shareable.

No JS? Fill the form by hand. The geolocation button needs JavaScript.

§ Radio — SatNOGS DB

ModeDescriptionDownlinkUplink
CW Mode L - CW TLM 1.703 GHz
BPSK Mode L - S-VISSR 2.0 - BPSK 660 kbps (1.212 MHz bandwidth) 1.688 GHz
BPSK Mode L xRIT - BPSK 500 kbps (1 MHz bandwidth) 1.691 GHz

3 transmitters · refreshed weekly from db.satnogs.org